TimePDT,TemperatureF,Dew PointF,Humidity,Sea Level PressureIn,VisibilityMPH,Wind Direction,Wind SpeedMPH,Gust SpeedMPH,PrecipitationIn,Events,Conditions,WindDirDegrees,DateUTC
12:52 AM,37.9,27.0,65,30.32,10.0,North,5.8,-,N/A,,Clear,360,2013-10-14 07:52:00
1:52 AM,37.0,30.0,76,30.33,10.0,NE,3.5,-,N/A,,Clear,50,2013-10-14 08:52:00
2:52 AM,35.1,28.0,76,30.34,10.0,North,4.6,-,N/A,,Clear,360,2013-10-14 09:52:00
3:52 AM,35.1,27.0,72,30.34,10.0,Calm,Calm,-,N/A,,Clear,0,2013-10-14 10:52:00
4:52 AM,33.1,26.1,75,30.35,10.0,Calm,Calm,-,N/A,,Clear,0,2013-10-14 11:52:00
5:52 AM,34.0,27.0,75,30.51,10.0,Calm,Calm,-,N/A,,Clear,0,2013-10-14 12:52:00
6:52 AM,32.0,26.1,79,30.39,10.0,Calm,Calm,-,N/A,,Clear,0,2013-10-14 13:52:00
7:52 AM,33.1,27.0,78,30.41,10.0,North,4.6,-,N/A,,Clear,10,2013-10-14 14:52:00
8:52 AM,39.9,28.0,63,30.43,10.0,Calm,Calm,-,N/A,,Clear,0,2013-10-14 15:52:00
9:52 AM,48.0,28.9,48,30.58,10.0,North,4.6,-,N/A,,Clear,10,2013-10-14 16:52:00
10:52 AM,53.1,30.9,43,30.43,10.0,North,6.9,-,N/A,,Clear,10,2013-10-14 17:52:00
11:52 AM,59.0,28.9,32,30.42,10.0,NNE,8.1,-,N/A,,Clear,30,2013-10-14 18:52:00
12:52 PM,61.0,28.0,29,30.41,10.0,North,5.8,-,N/A,,Clear,10,2013-10-14 19:52:00
1:52 PM,63.0,27.0,26,30.40,10.0,NNE,5.8,-,N/A,,Clear,20,2013-10-14 20:52:00
2:52 PM,63.0,27.0,26,30.39,10.0,Calm,Calm,-,N/A,,Clear,0,2013-10-14 21:52:00
3:52 PM,64.0,27.0,25,30.39,10.0,NNE,5.8,-,N/A,,Clear,30,2013-10-14 22:52:00
4:52 PM,62.1,27.0,26,30.39,10.0,ESE,3.5,-,N/A,,Clear,110,2013-10-14 23:52:00
5:52 PM,60.1,28.0,30,30.54,10.0,SW,3.5,-,N/A,,Clear,220,2013-10-15 00:52:00
6:52 PM,55.9,30.0,37,30.40,10.0,WSW,3.5,-,N/A,,Clear,240,2013-10-15 01:52:00
7:52 PM,48.9,28.0,44,30.40,10.0,WNW,5.8,-,N/A,,Clear,290,2013-10-15 02:52:00
8:52 PM,46.9,27.0,46,30.41,10.0,NE,3.5,-,N/A,,Clear,50,2013-10-15 03:52:00
9:52 PM,39.9,26.1,58,30.42,9.0,North,4.6,-,N/A,,Clear,10,2013-10-15 04:52:00
10:52 PM,37.9,28.0,68,30.57,10.0,NNE,4.6,-,N/A,,Clear,20,2013-10-15 05:52:00
11:52 PM,35.1,26.1,70,30.58,9.0,North,5.8,-,N/A,,Clear,360,2013-10-15 06:52:00